timestamp,surface_pressure_avg,surface_temp_avg,battery_voltage,lat,long
2017-11-22 00:00:00+00:00,309.5847,7.6,12.89,47.84626,-54.09684
2017-11-22 00:10:00+00:00,312.8763,7.6,12.81,47.84626,-54.09684
2017-11-22 00:20:00+00:00,318.1613,7.6,12.89,47.84626,-54.09684
2017-11-22 00:30:00+00:00,324.4363,7.6,12.89,47.84626,-54.09684
2017-11-22 00:40:00+00:00,326.858,7.6,12.97,47.84626,-54.09684
2017-11-22 00:50:00+00:00,333.778,7.6,12.97,47.84626,-54.09684
2017-11-22 01:00:00+00:00,335.3896,7.59,12.89,47.84626,-54.09684
2017-11-22 01:10:00+00:00,334.5463,7.55,12.81,47.84626,-54.09684
2017-11-22 01:20:00+00:00,332.5163,7.5,12.89,47.84626,-54.09684
2017-11-22 01:30:00+00:00,335.7013,7.5,12.89,47.84626,-54.09684
2017-11-22 01:40:00+00:00,335.768,7.5,12.89,47.84626,-54.09684
2017-11-22 01:50:00+00:00,332.7079,7.5,12.89,47.84626,-54.09684
2017-11-22 02:00:00+00:00,327.3297,7.5,12.81,47.84626,-54.09684
2017-11-22 02:10:00+00:00,324.2263,7.5,12.81,47.84626,-54.09684
2017-11-22 02:20:00+00:00,322.1513,7.49,12.89,47.84626,-54.09684
2017-11-22 02:30:00+00:00,322.1396,7.48,12.89,47.84626,-54.09684
2017-11-22 02:40:00+00:00,325.6113,7.46,12.89,47.84626,-54.09684
2017-11-22 02:50:00+00:00,327.7697,7.49,12.89,47.84626,-54.09684
2017-11-22 03:00:00+00:00,321.3447,7.5,12.81,47.84626,-54.09684
2017-11-22 03:10:00+00:00,315.8163,7.5,12.73,47.84626,-54.09684
2017-11-22 03:20:00+00:00,316.5597,7.5,12.81,47.84626,-54.09684
2017-11-22 03:30:00+00:00,311.6281,7.5,12.81,47.84626,-54.09684
2017-11-22 03:40:00+00:00,304.2564,7.48,12.89,47.84626,-54.09684
2017-11-22 03:50:00+00:00,304.368,7.47,12.89,47.84626,-54.09684
2017-11-22 04:00:00+00:00,306.0347,7.48,12.81,47.84626,-54.09684
2017-11-22 04:10:00+00:00,298.7863,7.46,12.73,47.84626,-54.09684
2017-11-22 04:20:00+00:00,286.9913,7.46,12.81,47.84626,-54.09684
2017-11-22 04:30:00+00:00,283.1281,7.5,12.81,47.84626,-54.09684
2017-11-22 04:40:00+00:00,279.998,7.57,12.81,47.84626,-54.09684
2017-11-22 04:50:00+00:00,270.6147,7.51,12.81,47.84626,-54.09684
2017-11-22 05:00:00+00:00,266.4364,7.53,12.81,47.84626,-54.09684
2017-11-22 05:10:00+00:00,266.4164,7.63,12.73,47.84626,-54.09684
2017-11-22 05:20:00+00:00,255.4131,7.6,12.81,47.84626,-54.09684
2017-11-22 05:30:00+00:00,238.4081,7.5,12.81,47.84626,-54.09684
2017-11-22 05:40:00+00:00,232.0615,7.4,12.81,47.84626,-54.09684
2017-11-22 05:50:00+00:00,234.6598,7.49,12.81,47.84626,-54.09684
2017-11-22 06:00:00+00:00,226.9498,7.5,12.73,47.84626,-54.09684
2017-11-22 06:10:00+00:00,214.2648,7.49,12.73,47.84626,-54.09684
2017-11-22 06:20:00+00:00,208.1881,7.4,12.81,47.84626,-54.09684
2017-11-22 06:30:00+00:00,208.8548,7.46,12.81,47.84626,-54.09684
2017-11-22 06:40:00+00:00,209.3281,7.5,12.81,47.84626,-54.09684
2017-11-22 06:50:00+00:00,212.7998,7.55,12.81,47.84626,-54.09684
2017-11-22 07:00:00+00:00,215.1198,7.6,12.73,47.84626,-54.09684
2017-11-22 07:10:00+00:00,210.6731,7.6,12.65,47.84626,-54.09684
2017-11-22 07:20:00+00:00,205.9098,7.64,12.73,47.84626,-54.09684
2017-11-22 07:30:00+00:00,210.9781,7.7,12.73,47.84626,-54.09684
2017-11-22 07:40:00+00:00,213.5981,7.7,12.81,47.84626,-54.09684
2017-11-22 07:50:00+00:00,209.4898,7.74,12.81,47.84626,-54.09684
2017-11-22 08:00:00+00:00,214.0048,7.8,12.73,47.84626,-54.09684
2017-11-22 08:10:00+00:00,221.4448,7.79,12.65,47.84626,-54.09684
2017-11-22 08:20:00+00:00,223.6197,7.76,12.73,47.84626,-54.09684
2017-11-22 08:30:00+00:00,224.5964,7.78,12.73,47.84626,-54.09684
2017-11-22 08:40:00+00:00,231.0848,7.78,12.73,47.84626,-54.09684
2017-11-22 08:50:00+00:00,238.2131,7.79,12.73,47.84626,-54.09684
2017-11-22 09:00:00+00:00,240.0814,7.79,12.73,47.84626,-54.09684
2017-11-22 09:10:00+00:00,239.8998,7.78,12.65,47.84626,-54.09684
2017-11-22 09:20:00+00:00,245.1581,7.76,12.73,47.84626,-54.09684
2017-11-22 09:30:00+00:00,250.2131,7.7,12.73,47.84626,-54.09684
2017-11-22 09:40:00+00:00,249.8914,7.7,12.73,47.84626,-54.09684
2017-11-22 09:50:00+00:00,249.5781,7.61,12.73,47.84626,-54.09684
2017-11-22 10:00:00+00:00,259.808,7.64,12.73,47.84626,-54.09684
2017-11-22 10:10:00+00:00,268.5447,7.64,12.65,47.84626,-54.09684
2017-11-22 10:20:00+00:00,272.3881,7.6,12.73,47.84626,-54.09684
2017-11-22 10:30:00+00:00,277.4998,7.54,12.73,47.84626,-54.09684
2017-11-22 10:40:00+00:00,289.8931,7.5,12.73,47.84626,-54.09684
2017-11-22 10:50:00+00:00,294.9147,7.5,12.73,47.84626,-54.09684
2017-11-22 11:00:00+00:00,296.6381,7.5,12.73,47.84626,-54.09684
2017-11-22 11:10:00+00:00,302.303,7.5,12.81,47.84626,-54.09684
2017-11-22 11:20:00+00:00,309.6146,7.45,13.21,47.84626,-54.09684
2017-11-22 11:30:00+00:00,311.7697,7.45,13.6,47.84626,-54.09684
2017-11-22 11:40:00+00:00,313.948,7.44,14.16,47.84626,-54.09684
2017-11-22 11:50:00+00:00,325.4197,7.4,13.68,47.84626,-54.09684
2017-11-22 12:00:00+00:00,334.423,7.4,13.53,47.84626,-54.09684
2017-11-22 12:10:00+00:00,335.803,7.4,14.16,47.84626,-54.09684
2017-11-22 12:20:00+00:00,344.1429,7.4,13.53,47.84626,-54.09684
2017-11-22 12:30:00+00:00,357.4646,7.37,13.53,47.84626,-54.09684
2017-11-22 12:40:00+00:00,358.343,7.33,13.53,47.84626,-54.09684
2017-11-22 12:50:00+00:00,354.658,7.39,14.0,47.84626,-54.09684
2017-11-22 13:00:00+00:00,362.5129,7.4,13.53,47.84626,-54.09684
2017-11-22 13:10:00+00:00,370.2795,7.38,13.53,47.84626,-54.09684
2017-11-22 13:20:00+00:00,368.5046,7.37,13.6,47.84626,-54.09684
2017-11-22 13:30:00+00:00,367.7163,7.4,13.53,47.84626,-54.09684
2017-11-22 13:40:00+00:00,371.5895,7.38,13.6,47.84626,-54.09684
2017-11-22 13:50:00+00:00,369.8712,7.33,13.44,47.84626,-54.09684
2017-11-22 14:00:00+00:00,363.6896,7.36,13.53,47.84626,-54.09684
2017-11-22 14:10:00+00:00,365.6029,7.36,13.53,47.84626,-54.09684
2017-11-22 14:20:00+00:00,374.8729,7.3,13.6,47.84626,-54.09684
2017-11-22 14:30:00+00:00,372.413,7.3,13.53,47.84626,-54.09684
2017-11-22 14:40:00+00:00,366.3279,7.33,13.44,47.84626,-54.09684
2017-11-22 14:50:00+00:00,366.5162,7.35,13.44,47.84626,-54.09684
2017-11-22 15:00:00+00:00,364.7145,7.38,13.44,47.84626,-54.09684
2017-11-22 15:10:00+00:00,357.023,7.4,13.53,47.84626,-54.09684
2017-11-22 15:20:00+00:00,354.6796,7.4,13.53,47.84626,-54.09684
2017-11-22 15:30:00+00:00,351.6379,7.4,13.53,47.84626,-54.09684
2017-11-22 15:40:00+00:00,339.038,7.44,13.53,47.84626,-54.09684
2017-11-22 15:50:00+00:00,333.308,7.49,13.53,47.84626,-54.09684
2017-11-22 16:00:00+00:00,335.813,7.5,13.44,47.84626,-54.09684
2017-11-22 16:10:00+00:00,330.0713,7.5,13.53,47.84626,-54.09684
2017-11-22 16:20:00+00:00,322.1146,7.5,13.44,47.84626,-54.09684
2017-11-22 16:30:00+00:00,327.8763,7.5,13.53,47.84626,-54.09684
2017-11-22 16:40:00+00:00,327.0912,7.5,13.53,47.84626,-54.09684
2017-11-22 16:50:00+00:00,307.5413,7.49,13.53,47.84626,-54.09684
2017-11-22 17:00:00+00:00,294.5514,7.48,13.92,47.84626,-54.09684
2017-11-22 17:10:00+00:00,296.1364,7.49,13.76,47.84626,-54.09684
2017-11-22 17:20:00+00:00,290.1697,7.5,13.6,47.84626,-54.09684
2017-11-22 17:30:00+00:00,277.2581,7.5,13.84,47.84626,-54.09684
2017-11-22 17:40:00+00:00,270.2514,7.49,13.53,47.84626,-54.09684
2017-11-22 17:50:00+00:00,266.0997,7.5,13.68,47.84626,-54.09684
2017-11-22 18:00:00+00:00,252.6614,7.4,13.68,47.84626,-54.09684
2017-11-22 18:10:00+00:00,242.3964,7.4,13.84,47.84626,-54.09684
2017-11-22 18:20:00+00:00,242.6831,7.4,14.0,47.84626,-54.09684
2017-11-22 18:30:00+00:00,238.0482,7.4,14.0,47.84626,-54.09684
2017-11-22 18:40:00+00:00,227.8381,7.4,13.92,47.84626,-54.09684
2017-11-22 18:50:00+00:00,220.2448,7.4,13.76,47.84626,-54.09684
2017-11-22 19:00:00+00:00,218.2398,7.4,13.53,47.84626,-54.09684
2017-11-22 19:10:00+00:00,213.2531,7.4,13.29,47.84626,-54.09684
2017-11-22 19:20:00+00:00,210.2082,7.4,13.29,47.84626,-54.09684
2017-11-22 19:30:00+00:00,208.2498,7.4,13.21,47.84626,-54.09684
2017-11-22 19:40:00+00:00,207.2398,7.4,13.21,47.84626,-54.09684
2017-11-22 19:50:00+00:00,207.8298,7.4,13.21,47.84626,-54.09684
2017-11-22 20:00:00+00:00,211.8514,7.4,13.13,47.84626,-54.09684
2017-11-22 20:10:00+00:00,216.5781,7.4,13.05,47.84626,-54.09684
2017-11-22 20:20:00+00:00,219.8681,7.4,13.13,47.84626,-54.09684
2017-11-22 20:30:00+00:00,228.9531,7.4,13.13,47.84626,-54.09684
2017-11-22 20:40:00+00:00,235.5865,7.4,13.13,47.84626,-54.09684
2017-11-22 20:50:00+00:00,233.8847,7.3,13.13,47.84626,-54.09684
2017-11-22 21:00:00+00:00,235.1948,7.2,13.05,47.84626,-54.09684
2017-11-22 21:10:00+00:00,240.0964,7.1,12.97,47.84626,-54.09684
2017-11-22 21:20:00+00:00,243.0264,7.09,13.05,47.84626,-54.09684
2017-11-22 21:30:00+00:00,242.3881,7.04,13.05,47.84626,-54.09684
2017-11-22 21:40:00+00:00,240.7714,7.0,13.05,47.84626,-54.09684
2017-11-22 21:50:00+00:00,244.4015,7.0,13.05,47.84626,-54.09684
2017-11-22 22:00:00+00:00,251.6797,7.01,12.97,47.84626,-54.09684
2017-11-22 22:10:00+00:00,258.6348,7.1,12.97,47.84626,-54.09684
2017-11-22 22:20:00+00:00,259.7097,7.1,13.05,47.84626,-54.09684
2017-11-22 22:30:00+00:00,260.1997,7.1,13.05,47.84626,-54.09684
2017-11-22 22:40:00+00:00,268.5881,7.2,13.05,47.84626,-54.09684
2017-11-22 22:50:00+00:00,280.2998,7.2,13.05,47.84626,-54.09684
2017-11-22 23:00:00+00:00,277.738,7.1,12.97,47.84626,-54.09684
2017-11-22 23:10:00+00:00,272.8697,7.1,12.97,47.84626,-54.09684
2017-11-22 23:20:00+00:00,278.373,7.14,12.97,47.84626,-54.09684
2017-11-22 23:30:00+00:00,278.3047,7.2,12.97,47.84626,-54.09684
2017-11-22 23:40:00+00:00,273.8281,7.0,13.05,47.84626,-54.09684
2017-11-22 23:50:00+00:00,283.9697,7.2,13.05,47.84626,-54.09684
